This demonstration page uses our WeatherBlox Daily Observations layout. Learn more.

Left ArrowRight Arrow

Hourly Observations for February 3, 2022

Temp ( °F °C ) Dew Point ( °F °C ) Humidity (%) Winds ( mph kmh ) Pressure ( in mb ) Visibility ( mi km ) Precip ( " mm )
12:53 am 00:53 Clear 43 6.1 30 -1.1 60 60 NW 3 6 30.24 1024 10 16 0.00 0.00
1:53 am 01:53 Clear 43 6.1 29 -1.7 58 58 Calm 30.23 1024 10 16 0.00 0.00
2:53 am 02:53 Clear 44 6.7 29 -1.7 55 55 WNW 5 7 30.22 1024 10 16 0.00 0.00
3:53 am 03:53 Clear 44 6.7 29 -1.7 55 55 NNW 3 6 30.22 1023 10 16 0.00 0.00
4:53 am 04:53 Clear 41 5 30 -1.1 65 65 Calm 30.24 1024 10 16 0.00 0.00
5:53 am 05:53 Clear 45 7.2 28 -2.2 52 52 NNW 5 7 30.25 1024 10 16 0.00 0.00
6:53 am 06:53 Clear 46 7.8 27 -2.8 47 47 NW 7 11 30.26 1025 10 16 0.00 0.00
7:53 am 07:53 Sunny 48 8.9 27 -2.8 44 44 NNW 8 13 30.26 1025 10 16 0.00 0.00
8:53 am 08:53 Sunny 51 10.6 29 -1.7 43 43 NW 6 9 30.27 1025 10 16 0.00 0.00
9:53 am 09:53 Sunny 58 14.4 25 -3.9 28 28 NNW 8 13 30.27 1025 10 16 0.00 0.00
10:53 am 10:53 Sunny 61 16.1 23 -5 23 23 NNW 12 19 30.27 1025 10 16 0.00 0.00
11:53 am 11:53 Sunny 64 17.8 22 -5.6 20 20 N 14 22 30.25 1024 10 16 0.00 0.00
12:53 pm 12:53 Sunny 66 18.9 22 -5.6 19 19 N 13 20 30.23 1024 10 16 0.00 0.00
1:53 pm 13:53 Sunny 68 20 23 -5 18 18 N 14 22 30.21 1023 10 16 0.00 0.00
2:53 pm 14:53 Sunny 68 20 27 -2.8 21 21 NNE 17 28 30.20 1023 10 16 0.00 0.00
3:53 pm 15:53 Sunny 68 20 27 -2.8 21 21 N 20 31 30.22 1023 10 16 0.00 0.00
4:53 pm 16:53 Sunny 67 19.4 27 -2.8 22 22 N 18 30 30.22 1023 10 16 0.00 0.00
5:53 pm 17:53 Clear 64 17.8 27 -2.8 25 25 N 9 15 30.25 1024 10 16 0.00 0.00
6:53 pm 18:53 Clear 62 16.7 27 -2.8 26 26 N 8 13 30.27 1025 10 16 0.00 0.00
7:53 pm 19:53 Clear 55 12.8 30 -1.1 38 38 N 7 11 30.30 1026 10 16 0.00 0.00
8:53 pm 20:53 Clear 55 12.8 28 -2.2 35 35 NNE 10 17 30.31 1027 10 16 0.00 0.00
9:53 pm 21:53 Clear 57 13.9 25 -3.9 29 29 NNW 6 9 30.33 1027 10 16 0.00 0.00
10:53 pm 22:53 Clear 51 10.6 27 -2.8 39 39 Calm 30.35 1028 10 16 0.00 0.00
11:53 pm 23:53 Clear 46 7.8 28 -2.2 50 50 W 5 7 30.35 1028 10 16 0.00 0.00

Powered by AerisWeather